DLH8RF LIMF-EDDM

Flight info

Callsign DLH8RF
Flight time 0h 52m
Altitude 32000
Route MMP DCT ABESI DCT NUNRI/N0437F310 T103 BETOS BETOS1A
Aircraft A320/M-SDE3FGHIRWY/LB1

Departure

Time 2026-05-06 15:40
Airport Turin Airport (LIMF)

Arrival

Time 2026-05-06 16:32
Airport Munich Airport (EDDM)
Time Latitude Longitude Altitude Speed Heading
2026-05-06 15:26 45.19449 7.64482 966 ft 0 kts 266°
2026-05-06 15:33 45.19452 7.64508 960 ft 4 kts 239°
2026-05-06 15:34 45.19470 7.64529 963 ft 4 kts 186°
2026-05-06 15:34 45.19477 7.64530 964 ft 0 kts 181°
2026-05-06 15:36 45.19476 7.64530 964 ft 0 kts 181°
2026-05-06 15:36 45.19473 7.64530 963 ft 1 kts 181°
2026-05-06 15:36 45.19462 7.64529 962 ft 4 kts 181°
2026-05-06 15:37 45.19418 7.64528 961 ft 13 kts 179°
2026-05-06 15:37 45.19359 7.64643 962 ft 14 kts 121°
2026-05-06 15:37 45.19278 7.64670 964 ft 13 kts 182°
2026-05-06 15:37 45.19182 7.64665 958 ft 15 kts 182°
2026-05-06 15:38 45.19075 7.64658 956 ft 15 kts 182°
2026-05-06 15:38 45.18970 7.64651 952 ft 15 kts 182°
2026-05-06 15:38 45.18853 7.64645 947 ft 18 kts 182°
2026-05-06 15:38 45.18721 7.64636 941 ft 19 kts 183°
2026-05-06 15:39 45.18621 7.64710 941 ft 16 kts 113°
2026-05-06 15:39 45.18629 7.64857 942 ft 13 kts 41°
2026-05-06 15:39 45.18809 7.64884 948 ft 59 kts
2026-05-06 15:39 45.19481 7.64926 969 ft 132 kts
2026-05-06 15:40 45.20533 7.64987 1290 ft 161 kts
2026-05-06 15:40 45.21677 7.65076 2097 ft 167 kts
2026-05-06 15:40 45.22906 7.65155 2724 ft 188 kts
2026-05-06 15:40 45.24285 7.65234 3177 ft 207 kts
2026-05-06 15:41 45.25758 7.65361 3804 ft 216 kts 11°
2026-05-06 15:41 45.27119 7.66394 4199 ft 238 kts 50°
2026-05-06 15:41 45.27785 7.68617 4570 ft 261 kts 86°
2026-05-06 15:41 45.27567 7.71247 4931 ft 275 kts 104°
2026-05-06 15:42 45.26963 7.73821 5025 ft 274 kts 111°
2026-05-06 15:42 45.26252 7.76311 5010 ft 271 kts 112°
2026-05-06 15:42 45.25548 7.78793 5009 ft 271 kts 112°
2026-05-06 15:42 45.24653 7.81135 5043 ft 272 kts 128°
2026-05-06 15:43 45.23456 7.83233 5909 ft 274 kts 129°
2026-05-06 15:43 45.22312 7.85413 6793 ft 277 kts 127°
2026-05-06 15:43 45.21186 7.87663 7614 ft 282 kts 127°
2026-05-06 15:43 45.20051 7.89962 8440 ft 287 kts 127°
2026-05-06 15:44 45.18897 7.92303 9259 ft 292 kts 127°
2026-05-06 15:44 45.17721 7.94677 10026 ft 298 kts 128°
2026-05-06 15:44 45.16479 7.97180 10327 ft 322 kts 126°
2026-05-06 15:44 45.15384 8.00091 10591 ft 347 kts 114°
2026-05-06 15:45 45.14668 8.03409 11203 ft 357 kts 106°
2026-05-06 15:45 45.14033 8.06830 11960 ft 361 kts 107°
2026-05-06 15:45 45.13373 8.10283 12770 ft 365 kts 108°
2026-05-06 15:45 45.12703 8.13762 13584 ft 368 kts 107°
2026-05-06 15:46 45.12387 8.17390 14287 ft 377 kts 91°
2026-05-06 15:46 45.12796 8.21083 14975 ft 385 kts 74°
2026-05-06 15:46 45.13946 8.24527 15681 ft 392 kts 56°
2026-05-06 15:46 45.15764 8.27413 16380 ft 397 kts 39°
2026-05-06 15:47 45.18007 8.29636 17102 ft 401 kts 32°
2026-05-06 15:47 45.20346 8.31829 17799 ft 405 kts 33°
2026-05-06 15:47 45.22710 8.34054 18416 ft 410 kts 33°
2026-05-06 15:47 45.25100 8.36315 18955 ft 416 kts 33°
2026-05-06 15:48 45.27525 8.38611 19480 ft 422 kts 33°
2026-05-06 15:48 45.29987 8.40941 20007 ft 428 kts 33°
2026-05-06 15:48 45.32484 8.43304 20523 ft 433 kts 33°
2026-05-06 15:48 45.35007 8.45697 21074 ft 439 kts 33°
2026-05-06 15:49 45.37563 8.48124 21566 ft 444 kts 33°
2026-05-06 15:49 45.40148 8.50583 22027 ft 449 kts 33°
2026-05-06 15:49 45.42760 8.53069 22478 ft 454 kts 33°
2026-05-06 15:49 45.45400 8.55584 22856 ft 459 kts 33°
2026-05-06 15:50 45.48065 8.58126 23288 ft 463 kts 33°
2026-05-06 15:50 45.50742 8.60684 23710 ft 465 kts 33°
2026-05-06 15:50 45.53434 8.63261 24067 ft 468 kts 33°
2026-05-06 15:50 45.56145 8.65856 24403 ft 471 kts 33°
2026-05-06 15:51 45.58870 8.68469 24726 ft 474 kts 33°
2026-05-06 15:51 45.61614 8.71103 25046 ft 477 kts 33°
2026-05-06 15:51 45.64455 8.73567 25364 ft 478 kts 25°
2026-05-06 15:51 45.67495 8.75499 25673 ft 480 kts 20°
2026-05-06 15:52 45.70589 8.77313 26013 ft 482 kts 20°
2026-05-06 15:52 45.73707 8.79140 26316 ft 485 kts 20°
2026-05-06 15:52 45.76837 8.80977 26624 ft 488 kts 20°
2026-05-06 15:52 45.79991 8.82838 26917 ft 491 kts 20°
2026-05-06 15:53 45.83157 8.84713 27226 ft 494 kts 20°
2026-05-06 15:53 45.86338 8.86602 27464 ft 497 kts 20°
2026-05-06 15:53 45.89546 8.88511 27731 ft 500 kts 20°
2026-05-06 15:53 45.92774 8.90430 28008 ft 503 kts 20°
2026-05-06 15:54 45.96012 8.92355 28287 ft 505 kts 20°
2026-05-06 15:54 45.99266 8.94288 28553 ft 508 kts 20°
2026-05-06 15:54 46.02542 8.96236 28830 ft 510 kts 20°
2026-05-06 15:54 46.05834 8.98198 29041 ft 513 kts 20°
2026-05-06 15:55 46.09143 9.00178 29294 ft 516 kts 20°
2026-05-06 15:55 46.12474 9.02178 29552 ft 518 kts 20°
2026-05-06 15:55 46.15823 9.04134 29755 ft 519 kts 16°
2026-05-06 15:55 46.19279 9.05662 29959 ft 520 kts 13°
2026-05-06 15:56 46.22756 9.07106 30121 ft 521 kts 12°
2026-05-06 15:56 46.26233 9.08550 30300 ft 524 kts 13°
2026-05-06 15:56 46.29732 9.10007 30544 ft 522 kts 13°
2026-05-06 15:56 46.33222 9.11467 30785 ft 522 kts 13°
2026-05-06 15:57 46.36710 9.12931 31022 ft 522 kts 13°
2026-05-06 15:57 46.40195 9.14392 31309 ft 521 kts 12°
2026-05-06 15:57 46.43683 9.15853 31593 ft 521 kts 12°
2026-05-06 15:57 46.47164 9.17311 31827 ft 521 kts 12°
2026-05-06 15:58 46.54114 9.20229 31917 ft 524 kts 13°
2026-05-06 15:58 46.61181 9.23216 31908 ft 533 kts 13°
2026-05-06 15:59 46.68331 9.26243 31905 ft 536 kts 13°
2026-05-06 15:59 46.75522 9.29302 31898 ft 539 kts 13°
2026-05-06 16:00 46.82725 9.32381 31898 ft 538 kts 13°
2026-05-06 16:00 46.89905 9.35442 31888 ft 537 kts 13°
2026-05-06 16:01 46.97090 9.38522 31896 ft 538 kts 13°
2026-05-06 16:01 47.04225 9.41577 31901 ft 537 kts 13°
2026-05-06 16:02 47.11398 9.44661 31899 ft 537 kts 13°
2026-05-06 16:02 47.18564 9.47764 31894 ft 537 kts 13°
2026-05-06 16:03 47.25724 9.50878 31910 ft 536 kts 13°
2026-05-06 16:03 47.32869 9.53981 31919 ft 535 kts 13°
2026-05-06 16:04 47.36436 9.55529 31731 ft 530 kts 13°
2026-05-06 16:04 47.39940 9.57055 31294 ft 518 kts 13°
2026-05-06 16:04 47.43332 9.58539 31180 ft 501 kts 14°
2026-05-06 16:04 47.46625 9.59985 31062 ft 486 kts 14°
2026-05-06 16:05 47.49805 9.61438 30951 ft 473 kts 19°
2026-05-06 16:05 47.52683 9.63665 30846 ft 464 kts 36°
2026-05-06 16:05 47.55069 9.66883 30708 ft 466 kts 52°
2026-05-06 16:05 47.56829 9.70882 30612 ft 462 kts 69°
2026-05-06 16:06 47.57843 9.75337 30502 ft 453 kts 85°
2026-05-06 16:06 47.58110 9.79922 30163 ft 445 kts 98°
2026-05-06 16:06 47.57989 9.84553 29092 ft 452 kts 99°
2026-05-06 16:06 47.57801 9.89202 28410 ft 451 kts 100°
2026-05-06 16:07 47.57586 9.93807 27864 ft 446 kts 101°
2026-05-06 16:07 47.57366 9.98361 27356 ft 441 kts 100°
2026-05-06 16:07 47.57153 10.02869 26860 ft 437 kts 100°
2026-05-06 16:07 47.56951 10.07333 26374 ft 432 kts 100°
2026-05-06 16:08 47.56760 10.11699 25916 ft 427 kts 99°
2026-05-06 16:08 47.56575 10.16058 25499 ft 422 kts 98°
2026-05-06 16:08 47.56396 10.20370 25025 ft 417 kts 98°
2026-05-06 16:08 47.56213 10.24633 24612 ft 413 kts 98°
2026-05-06 16:09 47.56026 10.28852 24256 ft 408 kts 98°
2026-05-06 16:09 47.55841 10.33036 24023 ft 407 kts 97°
2026-05-06 16:09 47.56045 10.37234 23784 ft 413 kts 81°
2026-05-06 16:09 47.57071 10.41210 23551 ft 418 kts 62°
2026-05-06 16:10 47.58786 10.44699 23288 ft 419 kts 53°
2026-05-06 16:10 47.60603 10.48061 23008 ft 417 kts 53°
2026-05-06 16:10 47.62417 10.51402 22735 ft 415 kts 53°
2026-05-06 16:10 47.64225 10.54737 22426 ft 414 kts 53°
2026-05-06 16:11 47.66021 10.58057 21956 ft 412 kts 53°
2026-05-06 16:11 47.67804 10.61364 21494 ft 408 kts 53°
2026-05-06 16:11 47.69572 10.64642 21027 ft 405 kts 53°
2026-05-06 16:11 47.71322 10.67897 20581 ft 402 kts 53°
2026-05-06 16:12 47.73058 10.71133 20135 ft 399 kts 53°
2026-05-06 16:12 47.74781 10.74354 19697 ft 397 kts 53°
2026-05-06 16:12 47.75914 10.76477 19387 ft 395 kts 54°
2026-05-06 16:12 47.77616 10.79674 18939 ft 393 kts 53°
2026-05-06 16:13 47.79325 10.82832 18541 ft 391 kts 52°
2026-05-06 16:13 47.81049 10.85954 18082 ft 390 kts 52°
2026-05-06 16:13 47.82773 10.89050 17611 ft 387 kts 52°
2026-05-06 16:13 47.84491 10.92132 17108 ft 385 kts 51°
2026-05-06 16:14 47.86196 10.95195 16697 ft 382 kts 52°
2026-05-06 16:14 47.87880 10.98228 16311 ft 380 kts 52°
2026-05-06 16:14 47.89562 11.01264 15999 ft 379 kts 51°
2026-05-06 16:14 47.91228 11.04279 15800 ft 375 kts 52°
2026-05-06 16:15 47.92886 11.07287 15801 ft 376 kts 51°
2026-05-06 16:15 47.94547 11.10305 15815 ft 377 kts 51°
2026-05-06 16:15 47.96209 11.13336 15817 ft 377 kts 51°
2026-05-06 16:15 47.97869 11.16369 15818 ft 377 kts 51°
2026-05-06 16:16 47.99530 11.19403 15819 ft 377 kts 51°
2026-05-06 16:16 48.01190 11.22438 15772 ft 376 kts 51°
2026-05-06 16:16 48.02839 11.25454 15349 ft 373 kts 51°
2026-05-06 16:16 48.04474 11.28454 14931 ft 371 kts 51°
2026-05-06 16:17 48.06099 11.31437 14546 ft 369 kts 51°
2026-05-06 16:17 48.07710 11.34396 14162 ft 366 kts 51°
2026-05-06 16:17 48.09312 11.37340 13782 ft 363 kts 52°
2026-05-06 16:17 48.10902 11.40263 13366 ft 361 kts 52°
2026-05-06 16:18 48.12481 11.43167 12946 ft 358 kts 52°
2026-05-06 16:18 48.14047 11.46049 12526 ft 355 kts 52°
2026-05-06 16:18 48.15579 11.48874 12116 ft 352 kts 52°
2026-05-06 16:18 48.17116 11.51713 11698 ft 349 kts 52°
2026-05-06 16:19 48.18639 11.54534 11294 ft 346 kts 52°
2026-05-06 16:19 48.20149 11.57328 10903 ft 344 kts 52°
2026-05-06 16:19 48.21640 11.60117 10779 ft 342 kts 55°
2026-05-06 16:19 48.22935 11.63098 10795 ft 342 kts 63°
2026-05-06 16:20 48.23963 11.66314 10805 ft 342 kts 70°
2026-05-06 16:20 48.24725 11.69687 10655 ft 338 kts 77°
2026-05-06 16:20 48.25210 11.73117 10219 ft 335 kts 85°
2026-05-06 16:20 48.25480 11.76558 9910 ft 329 kts 86°
2026-05-06 16:21 48.25737 11.79904 9786 ft 317 kts 86°
2026-05-06 16:21 48.25984 11.83128 9660 ft 306 kts 86°
2026-05-06 16:21 48.26225 11.86262 9412 ft 299 kts 86°
2026-05-06 16:21 48.26462 11.89349 9083 ft 296 kts 86°
2026-05-06 16:22 48.26691 11.92403 8718 ft 293 kts 86°
2026-05-06 16:22 48.26916 11.95435 8372 ft 290 kts 86°
2026-05-06 16:22 48.27140 11.98431 8026 ft 288 kts 85°
2026-05-06 16:22 48.27363 12.01407 7656 ft 285 kts 85°
2026-05-06 16:23 48.27582 12.04352 7295 ft 283 kts 85°
2026-05-06 16:23 48.27799 12.07271 6960 ft 280 kts 85°
2026-05-06 16:23 48.28016 12.10172 6537 ft 280 kts 86°
2026-05-06 16:23 48.28231 12.13076 6136 ft 280 kts 86°
2026-05-06 16:24 48.28445 12.15967 5777 ft 277 kts 86°
2026-05-06 16:24 48.28669 12.18815 5408 ft 274 kts 82°
2026-05-06 16:24 48.29401 12.21405 5208 ft 269 kts 53°
2026-05-06 16:24 48.30831 12.23103 5086 ft 261 kts 24°
2026-05-06 16:25 48.32575 12.23551 4973 ft 252 kts 359°
2026-05-06 16:25 48.34261 12.23153 4915 ft 239 kts 336°
2026-05-06 16:25 48.35619 12.21878 4947 ft 230 kts 316°
2026-05-06 16:25 48.36578 12.20084 4938 ft 211 kts 296°
2026-05-06 16:26 48.37074 12.18060 4955 ft 204 kts 278°
2026-05-06 16:26 48.37131 12.15955 4979 ft 197 kts 261°
2026-05-06 16:26 48.36982 12.13940 4959 ft 191 kts 261°
2026-05-06 16:26 48.36838 12.11980 4966 ft 190 kts 263°
2026-05-06 16:27 48.36692 12.09997 4969 ft 191 kts 263°
2026-05-06 16:27 48.36547 12.08020 4961 ft 190 kts 263°
2026-05-06 16:27 48.36402 12.06064 4807 ft 185 kts 263°
2026-05-06 16:27 48.36262 12.04161 4600 ft 182 kts 264°
2026-05-06 16:28 48.36281 12.02284 4388 ft 178 kts 277°
2026-05-06 16:28 48.36500 12.00467 4176 ft 175 kts 283°
2026-05-06 16:28 48.36784 11.98729 3965 ft 167 kts 286°
2026-05-06 16:28 48.37085 11.97060 3686 ft 164 kts 283°
2026-05-06 16:29 48.37241 11.95378 3441 ft 161 kts 273°
2026-05-06 16:29 48.37236 11.93693 3262 ft 161 kts 269°
2026-05-06 16:29 48.37174 11.92036 3088 ft 160 kts 272°
2026-05-06 16:29 48.37271 11.90373 2829 ft 159 kts 275°
2026-05-06 16:30 48.37231 11.88722 2552 ft 157 kts 262°
2026-05-06 16:30 48.37130 11.87645 2356 ft 156 kts 263°
2026-05-06 16:30 48.36953 11.85487 1984 ft 156 kts 263°
2026-05-06 16:30 48.36826 11.83865 1734 ft 157 kts 263°
2026-05-06 16:31 48.36692 11.82221 1552 ft 159 kts 264°
2026-05-06 16:31 48.36571 11.80586 1474 ft 151 kts 264°
2026-05-06 16:31 48.36467 11.79229 1470 ft 109 kts 262°
2026-05-06 16:31 48.36380 11.78224 1458 ft 77 kts 257°
2026-05-06 16:32 48.36334 11.77598 1469 ft 55 kts 264°
2026-05-06 16:32 48.36301 11.77118 1471 ft 41 kts 264°
2026-05-06 16:32 48.36202 11.76812 1462 ft 29 kts 196°
2026-05-06 16:32 48.36018 11.76856 1461 ft 26 kts 126°
2026-05-06 16:33 48.36028 11.77106 1464 ft 24 kts 75°
2026-05-06 16:33 48.36050 11.77344 1459 ft 22 kts 84°
2026-05-06 16:33 48.36066 11.77571 1463 ft 22 kts 85°
2026-05-06 16:34 48.36074 11.77670 1467 ft 0 kts 83°